Regional Weather Roundup
Issued by NWS

Home | Current Version | Previous Version | Text Only | Print | Product List | Glossary On
Versions: 1 2 3 4 5 6 7 8 9 10 11 12 13 14 15 16 17 18 19 20 21 22 23 24 25 26 27 28 29 30 31 32 33 34 35 36 37 38 39 40 41 42 43 44 45 46 47 48 49 50
502
ASUS43 KTOP 061008
RWRKS

WEATHER ROUNDUP FOR KANSAS
NATIONAL WEATHER SERVICE GOODLAND KS
500 AM CDT FRI MAY 06 2016

NOTE:  "FAIR" INDICATES FEW OR NO CLOUDS BELOW 12,000 FEET WITH NO
SIGNIFICANT WEATHER AND/OR OBSTRUCTIONS TO VISIBILITY.

KSZ001>006-013>018-027>032-041>047-061100-
NORTHWEST KANSAS

CITY           SKY/WX    TMP DP  RH WIND       PRES   REMARKS
GOODLAND       CLOUDY    50  45  83 S13       29.99F
HAYS           CLOUDY    54  39  58 S5        30.03F
HILL CITY      CLOUDY    58  44  60 S6        30.02F
RUSSELL        CLOUDY    53  45  74 SW9       30.02F
$$

KSZ061>065-074>080-084>089-061100-
SOUTHWEST KANSAS

CITY           SKY/WX    TMP DP  RH WIND       PRES   REMARKS
DODGE CITY     CLOUDY    56  43  61 S12       30.04F
ELKHART          N/A     49  44  83 S7          N/A
GARDEN CITY    CLOUDY    54  45  71 SE12      30.02F
GREAT BEND     CLEAR     50  41  71 S6        30.05S
LIBERAL        CLEAR     55  45  67 E12       30.03F
PRATT          CLEAR     48  42  79 S5        30.06S
$$

KSZ066>073-081>083-090>101-061100-
SOUTHEAST KANSAS

CITY           SKY/WX    TMP DP  RH WIND       PRES   REMARKS
CHANUTE        CLEAR     48  45  89 E3        30.06F
COFFEYVILLE    CLEAR     48  47  96 CALM      30.07S
HUTCHINSON     CLOUDY    46  43  89 CALM      30.06R
MEDICINE LODGE   N/A     48  45  89 E3        30.05S
NEWTON         CLOUDY    54  39  58 S8        30.08R
PARSONS        CLEAR     47  45  93 CALM      30.07F
WICHITA INTL   PTCLDY    53  44  71 SW3       30.05S
WICHITA JABRA  CLEAR     54  44  69 S7        30.05S
WINFIELD       CLEAR     52  45  77 CALM      30.34F
$$

KSZ007>012-019>026-033>040-048>060-102>105-061100-
NORTHEAST KANSAS

CITY           SKY/WX    TMP DP  RH WIND       PRES   REMARKS
CONCORDIA      CLEAR     58  41  53 S13       30.02F
EMPORIA        CLEAR     51  45  79 CALM      30.05S
LAWRENCE       CLEAR     45  43  93 CALM      30.06R
MANHATTAN      CLEAR     48  43  82 CALM      30.04S
MARYSVILLE     CLEAR     50  45  81 S5        30.03S
OLATHE IND     CLEAR     47  43  86 S5        30.07R
OLATHE EXE     CLEAR     50  41  71 S3        30.06S
SALINA         CLEAR     50  44  80 CALM      30.04S
TOPEKA BILLARD CLEAR     49  46  90 CALM      30.05S
TOPEKA FORBES  CLEAR     49  45  86 CALM      30.05R
$$




USA.gov is the U.S. government's official web portal to all federal, state and local government web resources and services.